Date,TemperatureHighF,TemperatureAvgF,TemperatureLowF,DewpointHighF,DewpointAvgF,DewpointLowF,HumidityHigh,HumidityAvg,HumidityLow,PressureMaxIn,PressureMinIn,WindSpeedMaxMPH,WindSpeedAvgMPH,GustSpeedMaxMPH,PrecipitationSumIn
2013-1-1,38.0,33.8,29.0,33.0,30.4,26.0,100,88,63,30.47,30.34,6,1,8,0.00
2013-1-2,41.0,35.8,32.0,29.0,24.7,21.0,72,64,54,30.34,30.18,3,1,4,0.00
2013-1-3,38.0,34.0,31.0,38.0,27.0,20.0,100,77,60,30.19,30.12,5,2,7,0.01
2013-1-4,43.0,40.4,37.0,43.0,40.3,37.0,100,99,88,30.34,30.16,5,2,6,0.01
2013-1-5,44.0,40.0,35.0,40.0,36.2,33.0,100,86,75,30.22,30.12,5,2,7,0.04
2013-1-6,37.0,36.5,36.0,37.0,36.5,36.0,100,100,100,30.18,30.15,4,3,5,0.03
2013-1-10,32.0,31.9,31.0,32.0,31.9,31.0,100,100,100,30.07,29.97,1,1,2,0.01
2013-1-11,26.0,26.0,26.0,26.0,26.0,26.0,100,100,100,30.29,30.28,0,0,0,0.00
2013-1-12,30.0,26.5,25.0,29.0,26.2,25.0,100,99,92,30.41,30.28,3,1,5,0.00
2013-1-13,30.0,27.0,24.0,28.0,25.8,23.0,100,95,88,30.47,30.40,2,0,3,0.00
2013-1-14,33.0,30.2,27.0,31.0,28.9,27.0,100,95,86,30.54,30.43,2,0,2,0.00
2013-1-15,37.0,33.7,31.0,35.0,33.2,31.0,100,98,90,30.68,30.59,4,1,6,0.00
2013-1-16,36.0,34.9,34.0,36.0,34.9,34.0,100,100,99,30.52,30.49,1,0,2,0.00
2013-1-17,47.0,37.8,33.0,39.0,35.6,29.0,100,93,51,30.50,30.28,3,1,4,0.00
2013-1-18,47.0,39.0,33.0,38.0,33.2,25.0,98,81,50,30.32,30.27,3,1,5,0.00
2013-1-19,41.0,37.0,31.0,35.0,29.2,24.0,100,74,58,30.36,30.31,2,0,2,0.00
2013-1-20,47.0,41.3,34.0,37.0,30.7,27.0,94,67,48,30.37,30.25,2,0,2,0.00
2013-1-21,46.0,39.4,33.0,37.0,29.5,23.0,85,68,43,30.25,30.12,3,1,4,0.00
2013-1-22,56.0,45.3,37.0,31.0,23.8,14.0,60,44,19,30.13,29.91,3,1,3,0.00
2013-1-23,48.0,41.4,37.0,38.0,31.9,21.0,100,73,35,30.13,29.86,4,2,5,0.08
2013-1-24,43.0,38.9,35.0,41.0,37.8,35.0,100,96,78,30.19,30.06,4,2,5,0.09
2013-1-25,45.0,42.2,40.0,45.0,42.2,39.0,100,100,100,30.07,29.94,4,1,5,0.19
2013-1-26,40.0,37.8,36.0,40.0,37.8,36.0,100,100,100,30.03,29.88,4,2,5,0.03
2013-1-27,37.0,35.5,34.0,37.0,35.5,34.0,100,100,100,30.06,29.98,3,2,6,0.24
2013-1-28,38.0,36.5,35.0,38.0,36.5,35.0,100,100,100,30.09,29.98,3,2,5,0.46
2013-1-29,42.0,40.4,37.0,42.0,40.4,37.0,100,100,100,30.37,30.09,4,2,6,0.50
2013-1-30,44.0,42.8,40.0,44.0,42.8,40.0,100,100,100,30.40,30.33,4,2,6,0.40
2013-1-31,43.0,43.0,42.0,43.0,43.0,42.0,100,100,100,30.39,30.32,4,2,5,0.51
2013-2-1,43.0,42.0,40.0,43.0,42.0,39.0,100,100,100,30.41,30.33,4,1,7,0.11
2013-2-2,47.0,40.4,36.0,45.0,38.5,34.0,100,94,61,30.37,30.25,3,1,4,0.15
2013-2-3,42.0,40.4,37.0,42.0,39.9,37.0,100,98,85,30.31,30.20,2,2,4,0.09
2013-2-4,49.0,41.3,39.0,46.0,41.0,39.0,100,99,87,30.21,29.90,3,2,4,0.05
2013-2-5,42.0,39.9,39.0,42.0,39.9,39.0,100,100,100,29.95,29.84,5,3,7,0.24
2013-2-6,43.0,40.3,38.0,43.0,40.0,38.0,100,99,88,30.06,29.80,4,2,6,0.02
2013-2-7,43.0,37.6,35.0,40.0,37.0,35.0,100,98,87,30.17,29.80,4,3,7,0.23
2013-2-8,36.0,35.0,33.0,36.0,35.0,33.0,100,100,100,30.27,30.16,2,1,5,0.00
2013-2-9,39.0,37.0,35.0,39.0,37.0,35.0,100,100,100,30.32,30.25,2,0,4,0.04
2013-2-10,41.0,36.9,33.0,38.0,36.4,33.0,100,98,87,30.36,30.31,2,1,4,0.00
2013-2-11,42.0,38.5,35.0,41.0,38.1,35.0,100,99,89,30.35,30.31,2,1,3,0.00
2013-2-12,44.0,42.2,40.0,44.0,42.2,40.0,100,100,100,30.41,30.32,2,0,2,0.00
2013-2-13,43.0,40.6,39.0,43.0,40.6,39.0,100,100,100,30.49,30.31,0,0,0,0.00
2013-2-14,44.0,40.9,38.0,44.0,40.9,38.0,100,100,100,30.55,30.49,0,0,0,0.00
2013-2-15,49.0,43.9,39.0,47.0,43.2,39.0,100,98,90,30.54,30.19,0,0,0,0.00
2013-2-16,46.0,42.0,37.0,45.0,41.2,37.0,100,97,86,30.19,30.14,0,0,0,0.00
2013-2-17,37.0,36.7,36.0,37.0,36.7,36.0,100,100,100,30.21,30.19,0,0,0,0.00
2013-2-18,41.0,39.0,38.0,39.0,36.1,32.0,95,90,75,29.91,29.75,0,0,0,0.02
2013-2-19,45.0,38.7,35.0,37.0,34.4,32.0,100,85,71,29.99,29.72,0,0,0,0.00
2013-2-20,39.0,36.6,35.0,39.0,36.0,34.0,100,98,86,30.03,29.99,0,0,0,0.01
2013-2-21,38.0,36.3,35.0,38.0,36.3,35.0,100,100,100,30.07,29.99,0,0,0,0.01
2013-2-22,40.0,37.0,33.0,40.0,37.0,33.0,100,100,100,30.06,29.72,0,0,0,0.12
2013-2-23,43.0,36.7,34.0,43.0,36.5,34.0,100,99,90,30.36,29.90,0,0,0,0.02
2013-2-24,41.0,37.7,35.0,40.0,37.4,35.0,100,99,85,30.37,29.96,0,0,0,0.02
2013-2-25,40.0,37.0,36.0,39.0,36.9,36.0,100,100,87,30.29,29.89,0,0,0,0.03
2013-2-26,43.0,38.1,35.0,37.0,35.0,32.0,100,89,67,30.34,30.19,0,0,0,0.00
2013-2-27,45.0,39.8,36.0,43.0,39.5,36.0,100,99,90,30.31,30.19,0,0,0,0.18
2013-2-28,48.0,43.7,40.0,48.0,43.7,40.0,100,100,100,30.35,30.19,0,0,0,0.36
2013-3-1,48.0,48.0,47.0,48.0,48.0,47.0,100,100,100,30.39,30.31,0,0,0,0.16
2013-3-2,52.0,44.1,34.0,50.0,44.0,34.0,100,100,93,30.31,30.09,0,0,0,0.43
2013-3-3,41.0,36.3,33.0,41.0,34.8,29.0,100,94,76,30.28,30.19,0,0,0,0.52
2013-3-4,49.0,40.5,32.0,35.0,27.8,21.0,90,63,40,30.28,29.92,0,0,0,0.00
2013-3-5,48.0,44.4,41.0,38.0,29.6,22.0,88,58,41,29.92,29.77,0,0,0,0.00
2013-3-6,41.0,38.1,35.0,40.0,37.0,34.0,100,96,80,29.89,29.57,0,0,0,0.43
2013-3-7,41.0,38.2,36.0,41.0,38.1,36.0,100,100,95,30.07,29.89,0,0,0,0.70
2013-3-8,47.0,39.9,34.0,42.0,38.5,34.0,100,95,77,30.23,30.06,0,0,0,0.01
2013-3-9,50.0,42.5,36.0,41.0,37.2,33.0,100,83,58,30.49,30.22,0,0,0,0.00
2013-3-10,41.0,39.2,37.0,41.0,37.4,34.0,100,94,82,30.49,30.42,0,0,0,0.01
2013-3-11,47.0,41.8,38.0,45.0,41.2,38.0,100,98,89,30.43,30.18,0,0,0,0.04
2013-3-12,48.0,46.7,43.0,48.0,46.6,43.0,100,100,97,30.18,30.10,0,0,0,0.04
2013-3-13,50.0,47.2,46.0,50.0,47.2,46.0,100,100,100,30.22,30.12,0,0,0,0.22
2013-3-14,50.0,46.6,44.0,50.0,46.6,44.0,100,100,100,30.17,30.05,0,0,0,0.03
2013-3-15,53.0,47.6,45.0,53.0,47.6,45.0,100,100,100,30.23,30.15,0,0,0,0.02
2013-3-16,45.0,41.7,36.0,45.0,41.7,36.0,100,100,100,30.15,29.90,0,0,0,0.04
2013-3-17,43.0,36.9,34.0,39.0,35.9,34.0,100,96,78,30.19,29.96,0,0,0,0.04
2013-3-18,49.0,38.8,35.0,42.0,35.9,33.0,100,90,56,30.23,30.12,0,0,0,0.00
2013-3-19,51.0,41.7,36.0,41.0,32.8,25.0,100,74,41,30.22,29.60,0,0,0,0.11
2013-3-20,44.0,40.0,34.0,44.0,40.0,34.0,100,100,100,30.01,29.43,0,0,0,0.50
2013-3-21,42.0,34.4,32.0,40.0,34.2,32.0,100,99,88,30.19,30.01,0,0,0,0.09
2013-3-22,38.0,32.8,30.0,38.0,32.6,29.0,100,99,94,30.35,30.19,0,0,0,0.07
2013-3-23,44.0,36.4,31.0,34.0,30.4,25.0,98,80,57,30.37,30.29,0,0,0,0.00
2013-3-24,50.0,42.2,35.0,32.0,27.6,23.0,72,57,44,30.29,30.12,0,0,0,0.00
2013-3-25,56.0,47.6,41.0,36.0,30.0,24.0,58,50,41,30.13,29.95,0,0,0,0.00
2013-3-26,57.0,49.1,44.0,41.0,36.4,31.0,78,62,46,30.03,29.96,0,0,0,0.00
2013-3-27,52.0,47.8,44.0,49.0,41.9,37.0,100,80,67,30.00,29.93,0,0,0,0.00
2013-3-28,56.0,48.8,43.0,50.0,45.4,41.0,100,88,74,30.16,30.00,0,0,0,0.00
2013-3-29,61.0,51.6,47.0,50.0,45.9,42.0,100,82,54,30.27,30.16,0,0,0,0.00
2013-3-30,64.0,53.4,45.0,47.0,43.1,-99.9,97,72,47,30.26,30.09,0,0,0,0.00
2013-3-31,69.0,58.5,48.0,48.0,45.3,43.0,88,63,42,30.09,29.96,0,0,0,0.00
2013-4-1,60.0,49.4,43.0,53.0,47.2,43.0,100,93,71,30.18,30.03,0,0,0,0.00
2013-4-2,49.0,46.9,45.0,49.0,46.9,45.0,100,100,100,30.22,30.17,0,0,0,0.00
2013-4-3,60.0,50.8,43.0,50.0,45.7,43.0,100,84,61,30.20,29.97,0,0,0,0.00
2013-4-4,55.0,52.3,49.0,53.0,48.0,41.0,100,86,62,29.97,29.67,0,0,0,0.19
2013-4-5,51.0,47.6,44.0,51.0,47.6,44.0,100,100,100,29.91,29.76,0,0,0,0.79
2013-4-6,45.0,42.9,40.0,45.0,42.9,40.0,100,100,100,29.96,29.73,0,0,0,0.64
2013-4-7,41.0,38.3,35.0,41.0,38.3,35.0,100,100,100,29.89,29.48,0,0,0,0.90
2013-4-8,47.0,41.6,38.0,47.0,41.6,38.0,100,100,100,30.28,29.89,0,0,0,0.02
2013-4-9,49.0,44.4,39.0,47.0,43.5,39.0,100,97,84,30.35,30.21,0,0,0,0.00
2013-4-10,47.0,44.9,42.0,47.0,44.9,42.0,100,100,99,30.27,30.05,0,0,0,0.32
2013-4-11,42.0,40.8,40.0,42.0,40.8,40.0,100,100,100,30.28,30.19,0,0,0,0.19
2013-4-12,42.0,39.2,36.0,41.0,39.1,36.0,100,100,96,30.19,29.70,0,0,0,0.15
2013-4-13,41.0,36.4,33.0,41.0,36.4,33.0,100,100,100,29.99,29.75,0,0,0,0.24
2013-4-14,47.0,39.7,33.0,44.0,37.8,33.0,100,94,68,30.01,29.93,0,0,0,0.65
2013-4-15,50.0,40.4,35.0,45.0,38.7,35.0,100,94,72,30.17,29.93,0,0,0,0.15
2013-4-16,50.0,41.8,35.0,43.0,38.3,35.0,100,89,64,30.40,30.17,0,0,0,0.03
2013-4-17,56.0,46.2,39.0,42.0,37.2,31.0,93,72,41,30.46,30.40,0,0,0,0.00
2013-4-18,46.0,42.3,38.0,45.0,42.1,38.0,100,99,93,30.46,30.24,0,0,0,0.15
2013-4-19,49.0,46.3,45.0,49.0,46.3,45.0,100,100,100,30.24,30.08,0,0,0,0.78
2013-4-20,48.0,44.4,42.0,48.0,44.4,42.0,100,100,100,30.30,30.22,0,0,0,0.25
2013-4-21,46.0,42.0,40.0,46.0,42.0,40.0,100,100,100,30.36,30.24,0,0,0,0.09
2013-4-22,47.0,40.5,37.0,45.0,38.7,29.0,100,95,49,30.52,30.36,0,0,0,0.08
2013-4-23,60.0,48.8,41.0,40.0,34.0,28.0,78,58,36,30.43,30.27,0,0,0,0.01
2013-4-24,66.0,53.7,43.0,43.0,36.3,31.0,78,54,30,30.33,30.10,0,0,0,0.01
2013-4-25,70.0,57.8,49.0,43.0,37.0,30.0,60,46,33,30.19,30.04,0,0,0,0.00
2013-4-26,67.0,55.1,45.0,50.0,45.5,40.0,100,73,47,30.30,30.19,0,0,0,0.00
2013-4-27,54.0,49.2,46.0,48.0,42.4,35.0,100,79,53,30.26,30.20,0,0,0,0.07
2013-4-28,55.0,47.6,43.0,51.0,45.2,41.0,100,92,64,30.24,29.97,0,0,0,0.03
2013-4-29,46.0,41.3,35.0,46.0,41.2,35.0,100,100,95,30.12,29.94,0,0,0,0.46
2013-4-30,50.0,42.1,34.0,40.0,34.8,30.0,100,78,46,30.44,30.19,0,0,0,0.01
2013-5-1,61.0,50.0,36.0,38.0,33.7,28.0,93,56,31,30.58,30.44,0,0,0,0.00
2013-5-2,53.0,51.1,50.0,39.0,37.9,37.0,63,60,57,30.56,30.40,0,0,0,0.00
2013-5-3,67.0,61.5,55.0,49.0,45.8,43.0,70,57,48,30.34,30.27,0,0,0,0.00
2013-5-4,75.0,61.9,48.0,51.0,45.3,38.0,90,58,32,30.27,30.06,0,0,0,0.00
2013-5-5,81.0,70.2,60.0,47.0,42.7,36.0,53,38,27,30.05,29.87,5,1,9,0.00
2013-5-6,78.0,68.6,64.0,47.0,42.8,35.0,53,40,23,29.91,29.85,5,1,10,0.00
2013-5-7,68.0,57.2,48.0,55.0,51.0,44.0,100,82,48,30.04,29.89,4,1,5,0.00
2013-5-8,63.0,52.8,48.0,56.0,51.3,48.0,100,95,74,30.18,30.05,3,1,4,0.00
2013-5-9,60.0,53.1,49.0,54.0,51.5,49.0,100,95,75,30.22,30.18,2,1,3,0.00
2013-5-10,77.0,63.9,54.0,59.0,51.9,-99.9,97,71,44,30.25,30.19,3,1,5,0.00
2013-5-11,77.0,64.7,53.0,59.0,51.2,-99.9,85,64,42,30.24,30.08,3,1,5,0.00
2013-5-12,67.0,59.5,55.0,62.0,57.7,55.0,100,94,70,30.16,30.07,3,1,4,0.38
2013-5-13,57.0,51.5,43.0,57.0,51.5,43.0,100,100,100,30.21,29.97,4,2,8,0.53
2013-5-14,54.0,44.0,41.0,43.0,41.1,33.0,100,92,47,30.23,30.15,3,2,5,0.20
2013-5-15,60.0,51.8,46.0,49.0,46.2,40.0,100,82,60,30.10,30.05,3,1,4,0.08
2013-5-16,66.0,52.6,48.0,56.0,34.9,-99.9,100,87,55,30.05,29.92,4,1,6,0.10
2013-5-17,55.0,50.2,49.0,54.0,47.3,-99.9,100,100,95,30.09,29.98,3,1,4,0.13
2013-5-18,54.0,50.3,47.0,52.0,49.3,47.0,100,97,84,30.29,30.09,3,1,3,0.01
2013-5-19,59.0,51.9,48.0,53.0,50.1,48.0,100,93,76,30.43,30.29,2,1,5,0.00
2013-5-20,63.0,53.6,47.0,54.0,49.2,47.0,100,86,64,30.32,29.93,3,1,4,0.01
2013-5-21,54.0,46.3,42.0,54.0,46.1,42.0,100,99,93,29.93,29.81,3,1,6,0.23
2013-5-22,44.0,41.9,39.0,44.0,41.9,39.0,100,100,100,29.95,29.87,3,1,5,0.38
2013-5-23,52.0,44.5,41.0,50.0,44.4,41.0,100,100,93,30.03,29.93,3,0,4,0.11
2013-5-24,47.0,45.0,44.0,47.0,45.0,44.0,100,100,100,30.07,29.97,6,2,8,0.07
2013-5-25,59.0,50.4,45.0,54.0,47.4,45.0,100,90,64,30.07,29.99,4,1,5,0.05
2013-5-26,56.0,50.6,48.0,56.0,50.3,47.0,100,99,93,30.02,29.96,5,1,8,0.11
2013-5-27,54.0,50.1,48.0,54.0,50.1,48.0,100,100,100,30.00,29.75,3,1,4,0.47
2013-5-28,54.0,50.1,47.0,54.0,50.1,47.0,100,100,100,29.93,29.80,3,1,65,0.29
2013-5-29,52.0,48.9,47.0,52.0,48.9,47.0,100,100,100,30.00,29.71,5,1,66,6.19
2013-5-30,56.0,48.8,44.0,52.0,47.9,44.0,100,97,85,30.27,30.00,3,2,6,6.19
2013-5-31,60.0,52.1,46.0,51.0,47.4,43.0,100,85,61,30.37,30.27,5,1,7,6.20
2013-6-1,69.0,57.3,50.0,53.0,48.4,45.0,90,74,44,30.27,30.09,5,2,7,6.20
2013-6-2,63.0,55.5,50.0,53.0,49.9,46.0,100,82,62,30.13,30.08,4,1,66,0.00
2013-6-3,69.0,56.5,47.0,56.0,51.3,47.0,100,84,60,30.15,30.11,3,1,5,0.00
2013-6-4,76.0,62.7,50.0,59.0,53.1,49.0,100,74,45,30.18,30.10,8,2,10,0.00
2013-6-5,76.0,64.7,58.0,58.0,53.5,44.0,85,68,50,30.16,30.08,7,2,73,0.00
2013-6-6,77.0,64.0,55.0,61.0,53.2,35.0,100,71,35,30.12,30.08,6,2,9,0.00
2013-6-7,65.0,57.5,53.0,57.0,48.7,36.0,91,74,38,30.19,30.09,4,2,6,0.00
2013-6-8,65.0,54.9,49.0,55.0,50.4,47.0,95,85,64,30.22,30.14,5,2,8,0.00
2013-6-9,64.0,54.2,48.0,51.0,47.9,45.0,98,80,57,30.14,30.06,5,2,65,0.00
2013-6-10,65.0,54.0,46.0,50.0,46.6,43.0,95,77,51,30.06,29.94,5,2,62,0.00
2013-6-11,62.0,52.4,46.0,51.0,47.2,45.0,100,84,57,30.15,29.98,3,2,5,0.00
2013-6-12,53.0,49.1,48.0,50.0,48.1,46.0,100,96,85,30.19,30.14,3,2,4,0.06
2013-6-13,61.0,52.7,48.0,57.0,50.7,48.0,100,93,76,30.27,30.17,2,1,3,0.13
2013-6-14,59.0,52.1,48.0,53.0,50.1,48.0,100,93,74,30.27,30.10,4,1,9,6.20
2013-6-15,74.0,61.2,50.0,58.0,52.0,47.0,100,74,43,30.10,30.00,5,1,68,6.21
2013-6-16,72.0,58.9,53.0,60.0,54.6,50.0,100,87,59,30.16,30.06,3,1,4,6.21
2013-6-17,72.0,59.8,52.0,57.0,53.5,51.0,100,82,51,30.16,29.98,3,1,6,6.21
2013-6-18,66.0,57.6,53.0,55.0,51.9,46.0,100,83,50,30.04,29.94,3,1,68,6.21
2013-6-19,61.0,53.5,50.0,57.0,52.1,50.0,100,95,70,30.06,29.96,3,1,66,6.22
2013-6-20,53.0,50.8,50.0,53.0,50.8,50.0,100,100,100,30.12,30.00,4,2,63,6.24
2013-6-21,59.0,58.5,57.0,57.0,56.0,54.0,95,92,83,30.21,30.19,1,0,2,6.25
2013-6-22,73.0,65.6,54.0,58.0,55.3,54.0,100,71,53,30.11,29.93,4,1,5,6.27
2013-6-23,66.0,62.1,58.0,64.0,58.6,54.0,100,89,70,29.93,29.66,4,1,68,6.30
2013-6-24,59.0,56.2,53.0,59.0,56.2,53.0,100,100,100,29.76,29.63,3,1,5,6.32
2013-6-25,71.0,56.2,53.0,65.0,55.7,53.0,100,98,65,29.91,29.72,3,1,64,6.36
2013-6-26,55.0,53.8,53.0,55.0,53.8,53.0,100,100,100,29.92,29.91,3,1,4,6.36
2013-6-27,65.0,63.5,63.0,65.0,63.3,63.0,100,99,93,30.27,30.25,1,0,2,0.10
2013-6-28,85.0,70.8,61.0,71.0,64.5,61.0,100,83,48,30.26,30.16,4,1,68,0.01
2013-6-29,81.0,70.6,63.0,64.0,61.9,57.0,96,75,54,30.19,30.10,3,1,77,6.41
2013-6-30,88.0,75.8,65.0,69.0,64.7,61.0,94,71,47,30.10,29.98,4,1,73,6.41
2013-7-1,88.0,74.5,66.0,68.0,63.7,58.0,88,70,50,30.12,30.01,6,1,75,6.41
2013-7-2,79.0,68.1,60.0,66.0,59.8,50.0,100,78,48,30.21,30.13,5,1,76,0.00
2013-7-3,76.0,65.2,58.0,59.0,50.6,40.0,75,60,47,30.21,30.13,7,3,10,0.00
2013-7-4,66.0,58.7,53.0,57.0,53.8,50.0,100,85,67,30.18,30.09,4,0,67,0.00
2013-7-5,67.0,59.2,54.0,57.0,55.0,53.0,100,87,67,30.09,30.03,3,0,4,0.00
2013-7-6,74.0,61.6,54.0,60.0,56.0,54.0,100,84,59,30.03,29.96,7,1,9,0.00
2013-7-7,68.0,61.8,55.0,62.0,57.7,53.0,100,87,70,30.03,29.96,7,1,9,0.00
2013-7-8,75.0,60.0,53.0,62.0,54.8,-99.9,100,87,61,30.16,30.03,3,1,65,0.00
2013-7-9,81.0,69.4,60.0,63.0,57.1,49.0,90,67,47,30.18,30.10,7,2,10,0.00
2013-7-10,68.0,59.7,55.0,58.0,52.6,-99.9,100,82,48,30.13,30.02,5,1,70,0.00
2013-7-11,67.0,55.9,49.0,55.0,50.2,48.0,100,83,55,30.13,30.05,4,1,67,0.00
2013-7-12,63.0,54.9,51.0,54.0,49.4,44.0,90,82,71,30.15,30.05,4,1,64,0.00
2013-7-13,72.0,60.7,50.0,55.0,51.0,47.0,100,73,46,30.24,30.16,4,1,6,0.00
2013-7-14,80.0,64.8,55.0,57.0,47.6,41.0,74,56,32,30.19,30.09,7,2,14,0.00
2013-7-15,76.0,64.2,56.0,55.0,50.8,45.0,87,64,45,30.11,29.98,6,3,68,0.00
2013-7-16,82.0,70.8,62.0,60.0,52.2,46.0,74,52,38,30.00,29.90,7,2,11,0.00
2013-7-17,69.0,60.8,56.0,62.0,58.2,55.0,100,92,63,30.27,29.99,3,1,5,0.03
2013-7-18,75.0,60.1,55.0,62.0,57.1,55.0,100,91,62,30.29,30.21,3,1,5,6.41
2013-7-19,75.0,64.6,56.0,64.0,59.9,56.0,100,86,63,30.22,30.14,5,1,66,6.41
2013-7-20,75.0,61.9,55.0,63.0,57.2,-99.9,100,88,65,30.15,30.05,4,1,6,6.41
2013-7-21,73.0,61.2,54.0,63.0,58.5,54.0,100,92,70,30.04,30.01,3,1,5,6.41
2013-7-22,77.0,60.3,54.0,65.0,57.8,54.0,100,92,64,30.13,30.02,3,0,66,6.41
2013-7-23,82.0,67.6,59.0,64.0,59.0,53.0,100,77,46,30.14,30.09,6,1,76,6.41
2013-7-24,82.0,69.4,61.0,60.0,54.3,39.0,86,61,33,30.15,30.10,6,2,71,6.41
2013-7-25,82.0,69.6,58.0,56.0,48.5,41.0,80,48,32,30.21,30.12,7,2,8,6.41
2013-7-26,85.0,68.6,60.0,57.0,48.8,40.0,74,51,31,30.24,30.16,6,2,10,6.41
2013-7-27,76.0,62.5,52.0,56.0,51.2,42.0,95,69,43,30.23,30.09,3,1,6,6.41
2013-7-28,66.0,56.2,50.0,57.0,53.4,50.0,100,91,72,30.11,30.04,3,2,5,6.41
2013-7-29,72.0,59.3,52.0,58.0,54.6,52.0,100,86,53,30.09,30.03,2,0,4,6.41
2013-7-30,76.0,63.3,53.0,60.0,56.3,53.0,100,80,53,30.22,30.09,3,1,4,6.41
2013-7-31,66.0,58.9,55.0,63.0,58.4,55.0,100,99,83,30.20,30.07,5,1,8,6.41
2013-8-1,60.0,56.6,53.0,60.0,56.6,53.0,100,100,100,30.14,30.09,3,1,4,6.41
2013-8-2,57.0,55.8,54.0,57.0,55.8,54.0,100,100,100,30.19,30.12,3,1,4,0.08
2013-8-3,66.0,60.7,56.0,63.0,59.4,56.0,100,95,84,30.20,30.13,2,0,67,6.42
2013-8-4,78.0,66.4,58.0,65.0,61.3,58.0,100,85,57,30.14,30.05,6,2,8,6.42
2013-8-5,82.0,69.0,61.0,63.0,58.8,55.0,92,72,41,30.11,30.05,6,2,8,6.42
2013-8-6,84.0,69.0,58.0,63.0,56.3,46.0,99,68,35,30.09,30.03,3,1,5,6.42
2013-8-7,83.0,69.1,59.0,61.0,55.7,47.0,87,64,39,30.12,30.05,5,1,76,6.42
2013-8-8,77.0,65.3,56.0,62.0,58.0,52.0,100,79,57,30.12,30.05,5,2,7,6.42
2013-8-9,80.0,68.7,60.0,61.0,57.4,51.0,91,68,50,30.06,29.97,3,1,70,6.42
2013-8-10,75.0,64.8,58.0,66.0,62.1,58.0,100,91,72,30.11,29.99,4,1,6,6.42
2013-8-11,72.0,63.0,55.0,61.0,58.4,55.0,100,86,64,30.14,30.09,3,1,4,6.42
2013-8-12,75.0,63.9,56.0,60.0,57.2,56.0,100,81,54,30.17,30.10,2,1,6,6.42
2013-8-13,80.0,64.9,55.0,59.0,53.7,-99.9,95,73,45,30.18,30.03,6,1,8,6.42
2013-8-14,79.0,66.2,62.0,62.0,55.4,-99.9,99,72,46,30.07,30.03,3,1,72,6.43
2013-8-15,67.0,56.6,61.0,65.0,41.8,-99.9,100,89,88,30.09,30.01,2,0,3,6.44
2013-8-16,82.0,66.4,62.0,67.0,57.4,-99.9,100,81,51,30.13,30.06,3,0,5,6.43
2013-8-17,77.0,64.2,60.0,63.0,56.3,-99.9,91,79,55,30.18,30.11,3,1,4,6.44
2013-8-18,74.0,65.5,59.0,61.0,58.8,54.0,100,81,59,30.22,30.17,4,1,6,6.44
2013-8-19,75.0,60.4,58.0,60.0,45.7,-99.9,100,78,57,30.21,30.15,4,2,9,6.44
2013-8-20,74.0,61.1,54.0,57.0,50.4,-99.9,88,72,53,30.25,30.16,5,2,76,6.44
2013-8-21,78.0,64.7,56.0,58.0,53.5,47.0,88,69,46,30.17,30.05,6,2,74,6.44
2013-8-22,79.0,70.0,62.0,61.0,56.2,51.0,82,62,49,30.05,29.94,5,1,78,6.44
2013-8-23,69.0,62.5,58.0,61.0,57.8,55.0,98,85,67,30.02,29.95,3,1,72,6.44
2013-8-24,68.0,60.2,56.0,63.0,55.2,-99.9,100,87,61,30.03,29.96,5,1,7,6.45
2013-8-25,67.0,60.0,56.0,59.0,55.3,50.0,100,85,68,30.06,29.97,5,2,8,6.45
2013-8-26,70.0,61.6,57.0,60.0,58.2,56.0,99,89,67,30.05,29.97,2,1,3,6.45
2013-8-27,72.0,61.5,58.0,62.0,58.8,57.0,100,91,70,30.05,29.99,2,0,4,6.46
2013-8-28,74.0,69.1,62.0,67.0,63.8,60.0,100,84,72,30.01,29.97,2,0,75,6.48
2013-8-29,70.0,62.9,60.0,68.0,62.7,60.0,100,100,88,30.15,29.96,4,2,6,6.61
2013-8-30,73.0,62.8,58.0,66.0,59.5,55.0,100,90,58,30.26,30.13,5,2,7,6.51
2013-8-31,78.0,64.0,57.0,61.0,56.9,-99.9,100,82,54,30.17,29.92,5,1,68,6.64
2013-9-1,78.0,66.4,58.0,62.0,59.8,56.0,100,81,56,29.99,29.94,4,1,5,6.64
2013-9-2,77.0,67.4,61.0,61.0,57.9,55.0,84,72,54,30.06,29.98,2,0,4,0.00
2013-9-3,72.0,62.7,59.0,66.0,61.0,58.0,100,94,75,30.12,30.05,3,1,5,0.15
2013-9-4,66.0,61.8,59.0,64.0,61.3,59.0,100,99,91,30.15,30.09,5,1,72,6.64
2013-9-5,66.0,61.2,58.0,63.0,60.5,58.0,100,98,86,30.14,30.02,4,1,8,6.67
2013-9-6,61.0,59.6,58.0,61.0,59.6,58.0,100,100,100,30.21,28.79,2,2,3,6.75
2013-9-7,69.0,60.2,58.0,68.0,57.9,-99.9,100,97,78,30.21,28.52,4,1,5,0.01